Weather in Krakow

Poland     50˚03′43″N   19˚56′12″E
temp.,
°C
wind,
m/s
gust,
m/s
humid.,
%
clouds,
%
prec.,
mm/h
press.,
hPa
HPBL,
m
1 december, tue
tue101:00−2˚s12700 0.0 102529
04:00−3˚s12720 0.0 102425
07:00−3˚s12730 0.0 102436
10:00sse12580 0.0 1024229
13:00+2˚ne11510 0.0 1023369
16:00−2˚ene12680 0.0 102323
19:00−2˚e11750 0.0 102430
22:00−3˚ne11780 0.0 102536
2 december, wed
wed201:00−3˚nne11820 0.0 102537
04:00−4˚ne11850 0.0 102444
07:00−4˚e12860 0.0 102547
10:00−2˚ene23700 0.0 1024236
13:00ene23560 0.0 1022354
16:00−2˚ene23670 0.0 102150
19:00−3˚e22700 0.0 102154
22:00−3˚ene12710 0.0 102041
3 december, thu
thu301:00−3˚ene116442 0.0 101935
04:00−3˚ese016133 0.0 101725
07:00−3˚ene235536 0.0 101646
10:00ene234878 0.0 1014111
13:00+1˚ene234889 0.0 1012140
16:00e2255100 0.0 101025
19:00+1˚ese126690 0.0 100929
22:00+1˚ese1273100 0.0 100832
4 december, fri
fri401:00+1˚ese1271100 0.0 100632
04:00+2˚se4862100 0.0 1004146
07:00+2˚se3668100 0.0 1003111
10:00+4˚ese3763100 0.0 1003216
13:00+6˚ese4965100 0.0 1002279
16:00+3˚ese3685100 0.0 1002107
19:00+2˚se128787 0.0 100341
22:00+2˚ese2386100 0.0 100461
5 december, sat
sat501:00+2˚ese3488100 0.0 100491
04:00+2˚ese2486100 0.0 100471
07:00+3˚se348796 0.0 100477
10:00+5˚se4679100 0.0 1005139
13:00+7˚ese2376100 0.0 100492
16:00+6˚se2280100 0.0 100536
19:00+6˚se4877100 0.0 1005166
22:00+6˚ese51074100 0.0 1005211